SCP
0 0 0 0 0 0 0 0 0 0 0 0 0 0 0 0 0 0 0 0 0 0
0 0 0 0 0 0 0 0 0 0 0 0 0 0 0 0 0 0 0 0 0 0
0 0 0 0 0 0 0 0 0 0 0 0 0 0 0 0 0 0 0 0 0 0
0 0 0 0 0 0 0 0 0 0 0 0 0 0 0 0 0 0 0 0 0 0
0 0 0 0 0 0 0 0 0 0 0 0 0 0 0 0 0 0 0 0 0 0
0 0 0 0 0 0 0 0 0 0 0 0 0 0 0 0 0 0 0 0 0 0
0 0 0 0 0 0 0 0 0 0 0 0 0 0 0 0 0 0 0 0 0 0
0 0 0 0 0 0 0 0 0 0 0 0 0 0 0 0 0 0 0 0 0 0
0 0 0 0 0 0 0 0 0 0 0 0 0 0 0 0 0 0 0 0 0 0
0 0 0 0 0 0 0 0 0 0 0 0 0 0 0 0 0 0 0 0 0 0
0 0 0 0 0 0 0 0 0 0 0 0 0 0 0 0 0 0 0 0 0 0
0 0 0 0 0 0 0 0 0 0 0 0 0 0 0 0 0 0 0 0 0 0
0 0 0 0 0 0 0 0 0 0 0 0 0 0 0 0 0 0 0 0 0 0
0 0 0 0 0 0 0 0 0 0 0 0 0 0 0 0 0 0 0 0 0 0
Wind_Speed_500mb
39 39 39 36 34 34 36 35 35 35 37 38 39 37 41 46 48 48 52 52 55 49
41 40 38 35 36 38 40 42 42 42 43 45 47 49 51 54 58 59 55 54 51 45
41 41 39 39 41 43 44 47 48 50 51 50 51 53 53 53 50 46 45 43 42 41
42 43 45 46 47 47 49 50 51 51 52 51 50 48 46 43 42 41 41 40 40 41
51 52 54 56 55 55 54 55 53 53 54 51 48 46 44 43 42 43 44 44 43 43
60 60 62 63 63 62 61 59 58 59 56 52 49 48 47 46 46 46 46 45 44 43
67 69 70 70 68 69 67 66 63 62 57 55 55 54 53 51 49 49 48 48 47 46
63 66 72 77 76 75 75 71 69 66 62 60 60 59 57 54 53 52 51 50 50 50
64 65 68 75 79 80 79 76 74 71 67 64 63 60 59 57 55 54 54 54 52 52
65 67 66 68 75 82 83 80 79 75 71 69 67 62 63 59 57 56 55 54 53 51
61 61 63 66 68 75 83 85 82 78 75 72 69 66 69 64 58 57 56 53 51 49
58 64 65 62 62 65 73 82 84 79 75 74 69 69 71 67 60 58 59 58 54 49
62 63 61 59 54 55 59 70 78 79 77 74 69 68 71 68 59 61 62 60 56 53
70 69 64 60 57 53 57 55 66 78 79 75 71 67 69 70 60 61 65 62 57 49
Wind_Direction_500mb
273 274 278 281 285 285 284 277 273 267 262 265 272 262 264 264 267 268 269 268 262 258
277 275 274 278 281 282 282 283 279 274 267 263 263 264 263 263 263 262 260 256 253 245
279 276 273 274 275 275 276 276 276 274 273 269 266 264 263 261 259 254 250 248 247 246
285 278 273 273 275 275 274 273 272 272 269 267 265 264 261 256 253 250 249 248 246 244
287 285 281 277 275 273 272 272 272 269 266 263 261 258 255 252 251 251 250 249 246 242
288 287 286 283 277 274 273 270 270 266 264 261 257 255 253 253 253 253 252 250 247 245
288 285 284 281 277 273 272 270 268 265 261 258 256 254 254 254 253 252 250 247 244 241
299 293 286 282 279 275 271 269 267 263 259 256 255 255 256 254 251 249 247 244 241 238
301 294 286 281 276 272 269 267 264 261 258 256 255 255 254 251 249 246 242 240 238 237
300 296 293 286 278 271 267 264 263 261 258 256 255 254 252 248 245 242 241 241 239 237
311 308 301 293 285 274 267 264 262 259 256 254 252 250 250 246 241 239 238 237 234 236
299 304 303 299 293 285 273 265 262 261 258 254 250 248 248 246 240 237 234 233 231 229
297 294 291 292 294 292 279 270 265 261 257 253 248 243 244 245 236 233 229 226 227 229
299 296 291 283 275 277 285 276 269 262 258 252 245 239 241 244 236 234 229 225 222 224
Wind_Speed_850mb
39 39 39 36 34 34 36 35 35 35 37 38 39 37 41 46 48 48 52 52 55 49
41 40 38 35 36 38 40 42 42 42 43 45 47 49 51 54 58 59 55 54 51 45
41 41 39 39 41 43 44 47 48 50 51 50 51 53 53 53 50 46 45 43 42 41
42 43 45 46 47 47 49 50 51 51 52 51 50 48 46 43 42 41 41 40 40 41
51 52 54 56 55 55 54 55 53 53 54 51 48 46 44 43 42 43 44 44 43 43
60 60 62 63 63 62 61 59 58 59 56 52 49 48 47 46 46 46 46 45 44 43
67 69 70 70 68 69 67 66 63 62 57 55 55 54 53 51 49 49 48 48 47 46
63 66 72 77 76 75 75 71 69 66 62 60 60 59 57 54 53 52 51 50 50 50
64 65 68 75 79 80 79 76 74 71 67 64 63 60 59 57 55 54 54 54 52 52
65 67 66 68 75 82 83 80 79 75 71 69 67 62 63 59 57 56 55 54 53 51
61 61 63 66 68 75 83 85 82 78 75 72 69 66 69 64 58 57 56 53 51 49
58 64 65 62 62 65 73 82 84 79 75 74 69 69 71 67 60 58 59 58 54 49
62 63 61 59 54 55 59 70 78 79 77 74 69 68 71 68 59 61 62 60 56 53
70 69 64 60 57 53 57 55 66 78 79 75 71 67 69 70 60 61 65 62 57 49
Wind_Direction_850mb
273 274 278 281 285 285 284 277 273 267 262 265 272 262 264 264 267 268 269 268 262 258
277 275 274 278 281 282 282 283 279 274 267 263 263 264 263 263 263 262 260 256 253 245
279 276 273 274 275 275 276 276 276 274 273 269 266 264 263 261 259 254 250 248 247 246
285 278 273 273 275 275 274 273 272 272 269 267 265 264 261 256 253 250 249 248 246 244
287 285 281 277 275 273 272 272 272 269 266 263 261 258 255 252 251 251 250 249 246 242
288 287 286 283 277 274 273 270 270 266 264 261 257 255 253 253 253 253 252 250 247 245
288 285 284 281 277 273 272 270 268 265 261 258 256 254 254 254 253 252 250 247 244 241
299 293 286 282 279 275 271 269 267 263 259 256 255 255 256 254 251 249 247 244 241 238
301 294 286 281 276 272 269 267 264 261 258 256 255 255 254 251 249 246 242 240 238 237
300 296 293 286 278 271 267 264 263 261 258 256 255 254 252 248 245 242 241 241 239 237
311 308 301 293 285 274 267 264 262 259 256 254 252 250 250 246 241 239 238 237 234 236
299 304 303 299 293 285 273 265 262 261 258 254 250 248 248 246 240 237 234 233 231 229
297 294 291 292 294 292 279 270 265 261 257 253 248 243 244 245 236 233 229 226 227 229
299 296 291 283 275 277 285 276 269 262 258 252 245 239 241 244 236 234 229 225 222 224